Location: Caixon
(43.4106°N, 0.0273°E)
Time: 15:44:08
(UTC+00:00)

CZ-4B R/B - Pass Details

Date: 16 October 2021
Orbit: 381 x 445 km, 97.6° (Epoch: 29 November)

Event Time Altitude Azimuth Distance (km) Brightness Sun altitude
Rises 05:29:29 0° 131° (SE) 2,265 5.9 -9.0°
Reaches altitude 10° 05:31:53 10° 109° (ESE) 1,425 5.4 -8.6°
Maximum altitude 05:33:53 16° 67° (ENE) 1,114 4.4 -8.2°
Drops below altitude 10° 05:35:55 10° 26° (NNE) 1,453 4.3 -7.9°
Sets 05:38:25 0° 5° (N) 2,332 5.0 -7.4°
